Change the Weather History Date:

Thursday, May 3, 2012

  Actual Average Record
Temperature  
Mean Temperature 74 °F 59 °F  
Max Temperature 86 °F 70 °F 86 °F (2012)
Min Temperature 62 °F 48 °F 32 °F (2005)
Degree Days  
Heating Degree Days 0 7  
Month to date heating degree days 0 21  
Since 1 July heating degree days 4102 5135  
Cooling Degree Days 9 1  
Month to date cooling degree days 26 3  
Year to date cooling degree days 74 22  
Growing Degree Days 24 (Base 50)    
Moisture  
Dew Point 61 °F    
Average Humidity 68    
Maximum Humidity 93    
Minimum Humidity 42    
Precipitation  
Precipitation 0.00 in 0.19 in 0.31 in (2008)
Month to date precipitation 0.86 0.53  
Year to date precipitation 10.31 15.18  
Sea Level Pressure  
Sea Level Pressure 29.99 in    
Wind  
Wind Speed 10 mph (SSW)    
Max Wind Speed 22 mph    
Max Gust Speed 29 mph    
Visibility 10 miles    
Events      
T = Trace of Precipitation, MM = Missing Value Source: NWS Daily Summary

Daily Weather History Graph

Daily Weather History Graph

Search for Another Location

Airport or City:

Trip Planner

Search our weather history database for the weather conditions in past years. The results will help you decide how hot, cold, wet, or windy it might be!

Date:

Astronomy

May. 03, 2012 Rise Set
Actual Time 6:45 AM EDT 8:41 PM EDT
Civil Twilight 6:16 AM EDT 9:11 PM EDT
Nautical Twilight 5:40 AM EDT 9:46 PM EDT
Astronomical Twilight 5:02 AM EDT 10:25 PM EDT
Moon 6:06 PM EDT 4:47 AM EDT
Length of Visible Light 14h 55m
Length of Day
13h 56m
Waxing Gibbous, 91% of the Moon is Illuminated
May 3
Waxing Gibbous
May 5
Full
May 12
Last Quarter
May 20
New
May 28
First Quarter

Hourly Weather History & Observations

Time (EDT) Temp. Heat Index Dew Point Humidity Pressure Visibility Wind Dir Wind Speed Gust Speed Precip Events Conditions
12:53 AM 73.9 °F - 62.1 °F 66% 29.96 in 10.0 mi SSW 8.1 mph - N/A   Clear
1:53 AM 73.0 °F - 62.1 °F 68% 29.96 in 10.0 mi SSW 6.9 mph - N/A   Clear
2:53 AM 70.0 °F - 62.1 °F 76% 29.95 in 10.0 mi South 6.9 mph - N/A   Clear
3:53 AM 71.1 °F - 62.1 °F 73% 29.95 in 10.0 mi South 6.9 mph - N/A   Clear
4:53 AM 66.9 °F - 62.1 °F 84% 29.97 in 10.0 mi Calm Calm - N/A   Clear
5:53 AM 63.0 °F - 60.1 °F 90% 29.98 in 10.0 mi Calm Calm - N/A   Clear
6:53 AM 62.1 °F - 60.1 °F 93% 30.00 in 8.0 mi Calm Calm - N/A   Clear
7:53 AM 66.9 °F - 63.0 °F 87% 30.03 in 10.0 mi South 4.6 mph - N/A   Clear
8:53 AM 73.0 °F - 63.0 °F 71% 30.05 in 10.0 mi SW 8.1 mph - N/A   Clear
9:53 AM 75.0 °F - 63.0 °F 66% 30.06 in 10.0 mi WSW 9.2 mph - N/A   Clear
10:53 AM 78.1 °F - 64.0 °F 62% 30.05 in 10.0 mi SSW 10.4 mph - N/A   Clear
11:53 AM 81.0 °F 82.5 °F 64.0 °F 56% 30.05 in 10.0 mi SW 10.4 mph 19.6 mph N/A   Clear
12:53 PM 82.9 °F 84.0 °F 63.0 °F 51% 30.03 in 10.0 mi South 16.1 mph 23.0 mph N/A   Clear
1:53 PM 86.0 °F 85.7 °F 60.1 °F 41% 30.02 in 10.0 mi SW 16.1 mph 25.3 mph N/A   Clear
2:53 PM 84.9 °F 84.4 °F 59.0 °F 41% 30.01 in 10.0 mi SSW 16.1 mph 26.5 mph N/A   Clear
3:53 PM 84.0 °F 84.0 °F 60.1 °F 44% 30.00 in 10.0 mi South 16.1 mph 24.2 mph N/A   Clear
4:53 PM 84.0 °F 84.0 °F 60.1 °F 44% 29.98 in 10.0 mi SSW 17.3 mph 24.2 mph N/A   Partly Cloudy
5:53 PM 82.9 °F 83.3 °F 61.0 °F 47% 29.96 in 10.0 mi South 17.3 mph 23.0 mph N/A   Clear
6:53 PM 81.0 °F 81.0 °F 57.0 °F 44% 29.95 in 10.0 mi South 17.3 mph 25.3 mph N/A   Clear
7:53 PM 77.0 °F - 57.0 °F 50% 29.94 in 10.0 mi South 15.0 mph 23.0 mph N/A   Clear
8:53 PM 73.9 °F - 57.9 °F 57% 29.95 in 10.0 mi SSW 10.4 mph 17.3 mph N/A   Clear
9:53 PM 72.0 °F - 57.9 °F 61% 29.97 in 10.0 mi SSW 5.8 mph - N/A   Clear
10:53 PM 70.0 °F - 59.0 °F 68% 29.99 in 10.0 mi SSW 6.9 mph - N/A   Clear
11:53 PM 68.0 °F - 60.1 °F 76% 29.98 in 10.0 mi South 5.8 mph - N/A   Clear